• MPC Preparation (Info)

  • MPEC 2001-O26 : 2001 OA14

    The following Minor Planet Electronic Circular may be linked-to from your own Web pages, but must not otherwise be redistributed electronically.

    A form allowing access to any MPEC is at the bottom of this page.


    Read MPEC 2001-O25 Read MPEC 2001-O27


    M.P.E.C. 2001-O26                                Issued 2001 July 22, 19:56 UT
    
         The Minor Planet Electronic Circulars contain information on unusual
             minor planets and routine data on comets.  They are published
       on behalf of Commission 20 of the International Astronomical Union by the
              Minor Planet Center, Smithsonian Astrophysical Observatory,
                              Cambridge, MA 02138, U.S.A.
    
                 Prepared using the Tamkin Foundation Computer Network
    
                                  MPC@CFA.HARVARD.EDU
              URL http://cfa-www.harvard.edu/iau/mpc.html  ISSN 1523-6714
    
                                       2001 OA14
    
    Observations:
         K01O14A* C2001 07 20.36752 22 47 46.63 -06 49 27.9          17.9        704
         K01O14A  C2001 07 20.37847 22 47 45.42 -06 49 00.4          18.2        704
         K01O14A  C2001 07 20.38841 22 47 44.25 -06 48 35.1          18.3        704
         K01O14A  C2001 07 20.39844 22 47 43.08 -06 48 10.3          18.7        704
         K01O14A  C2001 07 20.40839 22 47 41.96 -06 47 45.6          18.3        704
         K01O14A  C2001 07 21.03157 22 46 34.23 -06 21 36.4          18.3 R      952
         K01O14A  C2001 07 21.05341 22 46 31.41 -06 20 42.5                      952
         K01O14A  C2001 07 21.05686 22 46 30.99 -06 20 34.0                      952
         K01O14A  C2001 07 21.06031 22 46 30.59 -06 20 26.5                      952
         K01O14A  C2001 07 21.08903 22 46 26.92 -06 19 14.0          18.1 V      104
         K01O14A  C2001 07 21.09019 22 46 26.80 -06 19 11.4          17.8 V      104
         K01O14A  C2001 07 21.09076 22 46 26.76 -06 19 09.8          18.3 V      104
         K01O14A  C2001 07 21.40809 22 45 50.45 -06 05 31.5          18.2 R      711
         K01O14A  C2001 07 21.41295 22 45 49.86 -06 05 18.5          18.0 R      711
         K01O14A  C2001 07 21.41762 22 45 49.27 -06 05 06.1          17.8 R      711
         K01O14A  C2001 07 21.93616 22 44 48.98 -05 42 35.6          18.2 V      151
         K01O14A  C2001 07 21.94051 22 44 48.44 -05 42 23.0          18.7 V      151
         K01O14A  C2001 07 21.94250 22 44 48.16 -05 42 17.5          18.7 V      151
         K01O14A  C2001 07 21.94566 22 44 47.76 -05 42 10.5          18.5 V      151
         K01O14A  C2001 07 21.94782 22 44 47.55 -05 42 04.0          18.7 V      151
         K01O14A  C2001 07 21.94904 22 44 47.37 -05 42 00.3          18.6 V      151
         K01O14A  C2001 07 21.98280 22 44 43.06 -05 40 32.9          17.9 R      046
         K01O14A  C2001 07 21.98405 22 44 42.94 -05 40 29.9                      046
         K01O14A  C2001 07 21.98479 22 44 42.87 -05 40 27.4          17.7 R      046
         K01O14A  C2001 07 21.98653 22 44 42.69 -05 40 23.7                      046
         K01O14A  C2001 07 21.98726 22 44 42.53 -05 40 18.2          18.1 R      046
         K01O14A  C2001 07 22.05279 22 44 34.13 -05 37 27.3                      557
         K01O14A  C2001 07 22.05441 22 44 34.01 -05 37 23.5                      557
         K01O14A  C2001 07 22.05604 22 44 33.76 -05 37 19.1          18.2 V      557
         K01O14A  C2001 07 22.32662 22 44 01.13 -05 25 13.7          18.3        704
         K01O14A  C2001 07 22.35651 22 43 57.23 -05 23 52.5          19.2        704
         K01O14A  C2001 07 22.35879 22 43 56.88 -05 23 47.3          18.3        704
         K01O14A  C2001 07 22.36724 22 43 55.79 -05 23 23.5          18.5        704
         K01O14A  C2001 07 22.36952 22 43 55.49 -05 23 17.8          18.7        704
         K01O14A  C2001 07 22.37796 22 43 54.36 -05 22 55.3          18.4        704
         K01O14A  C2001 07 22.41205 22 43 49.81 -05 21 22.7          17.9 R      711
         K01O14A  C2001 07 22.41742 22 43 49.12 -05 21 08.6          17.9 R      711
         K01O14A  C2001 07 22.42199 22 43 48.50 -05 20 56.1          18.2 R      711
    
    Observer details:
    046 Klet.  Observers J. Ticha, M. Tichy, M. Kocer.  0.57-m f/5.2
        reflector + CCD.
    104 San Marcello Pistoiese.  Observers L. Tesi, A. Boattini, M. Tombelli.
        Measurers G. Forti, L. Tesi, A. Boattini, M. Tombelli.  0.40-m f/5
        reflector + CCD.
    151 Eschenberg Observatory, Winterthur.  Observer M. Griesser.  0.40-m f/5.8
        Hypergraph.
    557 Ondrejov.  Observers P. Pravec, L. Sarounova.  0.65-m f/3.6 reflector + CCD.
    704 Lincoln Laboratory ETS, New Mexico.  Observers M. Blythe, F. Shelly,
        M. Bezpalko, R. Huber, L. Manguso, S. Adams.  Measurers J. Stuart,
        R. Sayer, J. B. Evans, H. Viggh.  1.0-m f/2.15 reflector + CCD.
    711 McDonald Observatory.  Observer J. G. Ries.  0.76-m reflector + CCD.
    952 Marxuquera.  Observer J. J. Gomez.  0.25-m f/3.3 Schmidt-Cassegrain + CCD.
    
    Orbital elements:
    2001 OA14
    Epoch 2001 July 10.0 TT = JDT 2452100.5                 Spahr
    M 241.95861              (2000.0)            P               Q
    n   0.88740639     Peri.  145.55447     -0.13596295     -0.92124204
    a   1.0724762      Node   309.28653     +0.76955605     +0.13347359
    e   0.4168179      Incl.   28.09132     +0.62393715     -0.36537365
    P   1.11           H   18.2           G   0.15
    From 38 observations 2001 July 20-22.
    
    Ephemeris:
    2001 OA14                a,e,i = 1.07, 0.42, 28                  q = 0.6254
    Date    TT    R. A. (2000) Decl.     Delta      r     Elong.  Phase     V
    2001 07 10    22 59.91   -12 45.5    0.519    1.388   126.3    36.2    19.0
    2001 07 20    22 48.42   -07 04.4    0.415    1.348   136.5    31.2    18.3
    2001 07 30    22 23.21   +01 16.3    0.326    1.301   147.3    25.0    17.5
    2001 08 09    21 36.92   +13 18.4    0.264    1.250   150.3    23.7    16.9
    2001 08 19    20 24.01   +27 11.2    0.240    1.192   134.5    37.3    17.0
    2001 08 29    18 56.33   +37 02.5    0.255    1.130   111.8    56.1    17.5
    2001 09 08    17 39.73   +40 59.5    0.295    1.062    92.5    71.4    18.2
    2001 09 18    16 42.94   +41 41.2    0.343    0.990    77.7    82.5    18.7
    2001 09 28    15 59.15   +40 58.3    0.390    0.915    66.0    91.2    19.2
    
    Timothy B. Spahr             (C) Copyright 2001 MPC           M.P.E.C. 2001-O26
    

    Read MPEC 2001-O25 Read MPEC 2001-O27


    MPEC number:

    Enter an MPEC number in one of the following forms:

    • 1997-B01 (the full form)
    • J97B01 (the packed version of the full form)
    • B01 (the abbreviated form)